Change the Weather History Date:

Monday, February 3, 2014

  Actual Average Record
Temperature  
Mean Temperature 14 °F 26 °F  
Max Temperature 27 °F 37 °F 74 °F (1909)
Min Temperature 1 °F 14 °F -18 °F (1982)
Degree Days  
Heating Degree Days 51 39  
Month to date heating degree days 118  
Since 1 July heating degree days 4012  
Cooling Degree Days 0 0  
Month to date cooling degree days 0  
Year to date cooling degree days 0  
Moisture  
Dew Point 10 °F    
Average Humidity 75    
Maximum Humidity 92    
Minimum Humidity 57    
Precipitation  
Precipitation 0.00 in - 1.10 in (1903)
Sea Level Pressure  
Sea Level Pressure 30.10 in    
Wind  
Wind Speed 7 mph (SSE)    
Max Wind Speed 12 mph    
Max Gust Speed -    
Visibility 10 miles    
Events      
T = Trace of Precipitation, MM = Missing Value Source: NWS Daily Summary

Daily Weather History Graph

Daily Weather History Graph

Search for Another Location

Airport or City:

Trip Planner

Search our weather history database for the weather conditions in past years. The results will help you decide how hot, cold, wet, or windy it might be!

Date:

Astronomy

Feb. 03, 2014 Rise Set
Actual Time 7:43 AM CST 5:56 PM CST
Civil Twilight 7:15 AM CST 6:25 PM CST
Nautical Twilight 6:42 AM CST 6:57 PM CST
Astronomical Twilight 6:10 AM CST 7:29 PM CST
Moon 9:45 AM CST (2/3) 10:50 PM CST (2/3)
Length of Visible Light 11h 09m
Length of Day
10h 12m
Waxing Crescent, 20% of the Moon is Illuminated
Feb 3
Waxing Crescent
Feb 6
First Quarter
Feb 14
Full
Feb 22
Last Quarter
Mar 1
New

Hourly Weather History & Observations

Time (CST) Temp. Windchill Dew Point Humidity Pressure Visibility Wind Dir Wind Speed Gust Speed Precip Events Conditions
12:15 AM 8.6 °F -3.7 °F 3.2 °F 79% 30.14 in 10.0 mi SSW 8.1 mph - N/A   Clear
12:35 AM 8.6 °F -1.3 °F 3.2 °F 79% 30.14 in 10.0 mi SSW 5.8 mph - N/A   Clear
12:55 AM 8.6 °F -2.6 °F 5.0 °F 85% 30.15 in 10.0 mi SSW 6.9 mph - N/A   Clear
1:15 AM 6.8 °F -4.8 °F 3.2 °F 85% 30.14 in 10.0 mi SW 6.9 mph - N/A   Clear
1:35 AM 10.4 °F -1.5 °F 6.8 °F 85% 30.14 in 10.0 mi SW 8.1 mph - N/A   Clear
1:55 AM 6.8 °F -4.8 °F 1.4 °F 79% 30.13 in 10.0 mi SW 6.9 mph - N/A   Clear
2:15 AM 6.8 °F -4.8 °F 1.4 °F 79% 30.12 in 10.0 mi SW 6.9 mph - N/A   Clear
2:35 AM 6.8 °F - 3.2 °F 85% 30.12 in 10.0 mi Calm Calm - N/A   Clear
2:55 AM 6.8 °F -3.5 °F 3.2 °F 85% 30.13 in 10.0 mi SSW 5.8 mph - N/A   Clear
3:15 AM 6.8 °F -0.1 °F 1.4 °F 79% 30.13 in 10.0 mi SSW 3.5 mph - N/A   Clear
3:35 AM 5.0 °F - 1.4 °F 85% 30.12 in 10.0 mi Calm Calm - N/A   Clear
3:55 AM 5.0 °F -2.1 °F 1.4 °F 85% 30.12 in 10.0 mi South 3.5 mph - N/A   Clear
4:15 AM 3.2 °F -4.2 °F -0.4 °F 85% 30.12 in 10.0 mi SSW 3.5 mph - N/A   Clear
4:35 AM 3.2 °F -6.2 °F -0.4 °F 85% 30.12 in 10.0 mi SW 4.6 mph - N/A   Clear
4:55 AM 3.2 °F -4.2 °F -0.4 °F 85% 30.11 in 10.0 mi SSW 3.5 mph - N/A   Clear
5:15 AM 3.2 °F - -0.4 °F 85% 30.11 in 10.0 mi Calm Calm - N/A   Clear
5:35 AM 5.0 °F - 1.4 °F 85% 30.11 in 10.0 mi Calm Calm - N/A   Clear
5:55 AM 6.8 °F - 3.2 °F 85% 30.12 in 10.0 mi Calm Calm - N/A   Clear
6:15 AM 3.2 °F - 1.4 °F 92% 30.12 in 10.0 mi Calm Calm - N/A   Partly Cloudy
6:35 AM 5.0 °F - 1.4 °F 85% 30.11 in 10.0 mi Calm Calm - N/A   Mostly Cloudy
6:55 AM 6.8 °F -0.1 °F 3.2 °F 85% 30.11 in 10.0 mi South 3.5 mph - N/A   Overcast
7:15 AM 8.6 °F -1.3 °F 6.8 °F 92% 30.12 in 10.0 mi South 5.8 mph - N/A   Overcast
7:35 AM 10.4 °F 4.0 °F 8.6 °F 92% 30.11 in 10.0 mi SSW 3.5 mph - N/A   Overcast
7:55 AM 10.4 °F - 8.6 °F 92% 30.11 in 10.0 mi Calm Calm - N/A   Overcast
8:15 AM 10.4 °F 2.2 °F 6.8 °F 85% 30.13 in 10.0 mi South 4.6 mph - N/A   Overcast
8:35 AM 10.4 °F 4.0 °F 8.6 °F 92% 30.13 in 10.0 mi South 3.5 mph - N/A   Overcast
8:55 AM 12.2 °F 4.3 °F 8.6 °F 85% 30.13 in 10.0 mi South 4.6 mph - N/A   Overcast
9:15 AM 14.0 °F 6.5 °F 10.4 °F 86% 30.13 in 10.0 mi South 4.6 mph - N/A   Overcast
9:35 AM 17.6 °F 7.3 °F 10.4 °F 73% 30.13 in 10.0 mi South 8.1 mph - N/A   Overcast
9:55 AM 17.6 °F 9.3 °F 10.4 °F 73% 30.14 in 10.0 mi South 5.8 mph - N/A   Overcast
10:15 AM 19.4 °F 11.5 °F 12.2 °F 74% 30.14 in 10.0 mi South 5.8 mph - N/A   Overcast
10:35 AM 19.4 °F 11.5 °F 10.4 °F 68% 30.15 in 10.0 mi South 5.8 mph - N/A   Overcast
10:55 AM 21.2 °F 11.7 °F 12.2 °F 68% 30.15 in 10.0 mi SSE 8.1 mph - N/A   Overcast
11:15 AM 21.2 °F 11.7 °F 12.2 °F 68% 30.14 in 10.0 mi SSE 8.1 mph - N/A   Overcast
11:35 AM 21.2 °F 10.1 °F 12.2 °F 68% 30.13 in 10.0 mi SSE 10.4 mph - N/A   Overcast
11:55 AM 23.0 °F 13.1 °F 12.2 °F 63% 30.12 in 10.0 mi South 9.2 mph - N/A   Overcast
12:15 PM 23.0 °F 13.9 °F 12.2 °F 63% 30.10 in 10.0 mi SSE 8.1 mph - N/A   Overcast
12:35 PM 24.8 °F 14.6 °F 12.2 °F 59% 30.09 in 10.0 mi SSE 10.4 mph - N/A   Overcast
12:55 PM 24.8 °F 14.6 °F 12.2 °F 59% 30.09 in 10.0 mi SSE 10.4 mph - N/A   Overcast
1:15 PM 24.8 °F 14.6 °F 12.2 °F 59% 30.07 in 10.0 mi SSE 10.4 mph - N/A   Overcast
1:35 PM 26.6 °F 15.7 °F 14.0 °F 59% 30.07 in 10.0 mi SSE 12.7 mph - N/A   Overcast
1:55 PM 26.6 °F 16.8 °F 14.0 °F 59% 30.06 in 10.0 mi SE 10.4 mph - N/A   Overcast
2:15 PM 26.6 °F 15.7 °F 15.8 °F 64% 30.06 in 10.0 mi SE 12.7 mph - N/A   Overcast
2:35 PM 26.6 °F 17.5 °F 15.8 °F 64% 30.05 in 10.0 mi SE 9.2 mph - N/A   Overcast
2:55 PM 26.6 °F 16.8 °F 14.0 °F 59% 30.05 in 10.0 mi ESE 10.4 mph - N/A   Overcast
3:15 PM 26.6 °F 16.2 °F 14.0 °F 59% 30.05 in 10.0 mi SE 11.5 mph - N/A   Overcast
3:35 PM 26.6 °F 16.2 °F 15.8 °F 64% 30.05 in 10.0 mi SSE 11.5 mph - N/A   Overcast
3:55 PM 24.8 °F 14.0 °F 15.8 °F 69% 30.05 in 10.0 mi SSE 11.5 mph - N/A   Overcast
4:15 PM 24.8 °F 14.6 °F 15.8 °F 69% 30.05 in 10.0 mi SSE 10.4 mph - N/A   Overcast
4:35 PM 24.8 °F 14.6 °F 15.8 °F 69% 30.05 in 10.0 mi SSE 10.4 mph - N/A   Overcast
4:55 PM 24.8 °F 14.6 °F 15.8 °F 69% 30.06 in 10.0 mi South 10.4 mph - N/A   Overcast
5:15 PM 24.8 °F 16.9 °F 15.8 °F 69% 30.06 in 10.0 mi SSE 6.9 mph - N/A   Overcast
5:35 PM 24.8 °F 15.3 °F 15.8 °F 69% 30.06 in 10.0 mi SSE 9.2 mph - N/A   Overcast
5:55 PM 24.8 °F 16.1 °F 15.8 °F 69% 30.07 in 10.0 mi SSE 8.1 mph - N/A   Overcast
6:15 PM 24.8 °F 15.3 °F 15.8 °F 69% 30.07 in 10.0 mi SSE 9.2 mph - N/A   Overcast
6:35 PM 23.0 °F 13.9 °F 15.8 °F 74% 30.07 in 10.0 mi South 8.1 mph - N/A   Overcast
6:55 PM 23.0 °F 13.9 °F 15.8 °F 74% 30.08 in 10.0 mi SSE 8.1 mph - N/A   Overcast
7:15 PM 23.0 °F 13.9 °F 15.8 °F 74% 30.08 in 10.0 mi SE 8.1 mph - N/A   Overcast
7:35 PM 23.0 °F 15.8 °F 15.8 °F 74% 30.09 in 10.0 mi SE 5.8 mph - N/A   Overcast
7:55 PM 23.0 °F 17.0 °F 15.8 °F 74% 30.09 in 10.0 mi ESE 4.6 mph - N/A   Overcast
8:15 PM 23.0 °F 17.0 °F 17.6 °F 80% 30.09 in 10.0 mi East 4.6 mph - N/A   Overcast
8:35 PM 23.0 °F 15.8 °F 15.8 °F 74% 30.09 in 10.0 mi East 5.8 mph - N/A   Overcast
8:55 PM 23.0 °F 15.8 °F 17.6 °F 80% 30.10 in 10.0 mi East 5.8 mph - N/A   Overcast
9:15 PM 23.0 °F 15.8 °F 15.8 °F 74% 30.10 in 10.0 mi East 5.8 mph - N/A   Overcast
9:35 PM 23.0 °F 15.8 °F 17.6 °F 80% 30.11 in 10.0 mi ESE 5.8 mph - N/A   Overcast
9:55 PM 23.0 °F 15.8 °F 15.8 °F 74% 30.12 in 10.0 mi East 5.8 mph - N/A   Overcast
10:15 PM 23.0 °F 15.8 °F 15.8 °F 74% 30.12 in 10.0 mi ENE 5.8 mph - N/A   Overcast
10:35 PM 23.0 °F 14.7 °F 15.8 °F 74% 30.12 in 10.0 mi East 6.9 mph - N/A   Overcast
10:55 PM 23.0 °F 13.9 °F 15.8 °F 74% 30.12 in 10.0 mi East 8.1 mph - N/A   Overcast
11:15 PM 23.0 °F 14.7 °F 15.8 °F 74% 30.12 in 10.0 mi ENE 6.9 mph - N/A   Overcast
11:35 PM 21.2 °F 13.6 °F 15.8 °F 80% 30.13 in 10.0 mi ENE 5.8 mph - N/A   Overcast
11:55 PM 21.2 °F 12.6 °F 15.8 °F 80% 30.12 in 10.0 mi ENE 6.9 mph - N/A   Overcast